NASA001 KTTS-HGLL

Flight info

Callsign NASA001
Flight time N/A
Altitude 25900
Route DCT
Aircraft SR72/M-G/L

Departure

Time 2026-04-18 13:18
Airport Space Florida Launch and Landing Facility (KTTS)

Arrival

Time N/A
Airport HGLL
Time Latitude Longitude Altitude Speed Heading
2026-04-18 13:05 28.59916 -80.67995 17 ft 0 kts 154°
2026-04-18 13:09 28.59885 -80.67980 17 ft 3 kts 159°
2026-04-18 13:10 28.59864 -80.67983 17 ft 50 kts 208°
2026-04-18 13:10 28.59856 -80.68737 26 ft 23 kts 330°
2026-04-18 13:10 28.59917 -80.67995 28 ft 0 kts 154°
2026-04-18 13:11 28.59916 -80.67995 17 ft 0 kts 154°
2026-04-18 13:14 28.59878 -80.67995 17 ft 0 kts 209°
2026-04-18 13:14 28.59855 -80.68014 17 ft 16 kts 220°
2026-04-18 13:14 28.59849 -80.68020 17 ft 0 kts 226°
2026-04-18 13:17 28.59834 -80.68045 17 ft 16 kts 236°
2026-04-18 13:17 28.59742 -80.68234 17 ft 43 kts 285°
2026-04-18 13:17 28.60044 -80.68384 19 ft 60 kts 349°
2026-04-18 13:17 28.60327 -80.68609 18 ft 49 kts 317°
2026-04-18 13:18 28.62309 -80.70088 258 ft 770 kts 351°
2026-04-18 13:18 28.71422 -80.66717 12848 ft 1457 kts 18°
2026-04-18 13:18 28.71861 -80.73915 59697 ft 2020 kts 279°
2026-04-18 13:18 28.70317 -80.88359 86119 ft 2004 kts 264°
2026-04-18 13:19 28.66645 -81.04316 0 ft 2429 kts 252°
2026-04-18 13:19 28.62034 -81.25088 0 ft 2831 kts 255°
2026-04-18 13:19 28.53052 -81.48128 0 ft 3645 kts 249°
2026-04-18 13:19 28.42391 -81.76893 0 ft 4168 kts 229°
2026-04-18 13:20 28.29742 -81.99353 92619 ft 2940 kts 244°
2026-04-18 13:20 28.18238 -82.21894 7511 ft 2361 kts 282°
2026-04-18 13:20 28.20750 -82.31333 19328 ft 2053 kts 310°
2026-04-18 13:20 28.25695 -82.45780 67004 ft 1907 kts 292°
2026-04-18 13:21 28.30175 -82.62818 0 ft 2632 kts 299°
2026-04-18 13:21 28.40903 -82.79762 0 ft 2271 kts 273°
2026-04-18 13:21 28.44997 -82.98468 0 ft 1804 kts 259°
2026-04-18 13:21 28.39681 -83.02653 57421 ft 2512 kts 165°
2026-04-18 13:22 28.16136 -82.88307 57421 ft 4789 kts 133°
2026-04-18 13:22 27.96304 -82.55181 57362 ft 5527 kts 135°
2026-04-18 13:22 27.76084 -82.37086 57372 ft 5716 kts 171°
2026-04-18 13:22 27.35785 -82.39880 57396 ft 6388 kts 218°
2026-04-18 13:23 26.99696 -82.67969 57407 ft 5916 kts 231°
2026-04-18 13:23 26.76487 -82.89789 57407 ft 2864 kts 241°
2026-04-18 13:23 26.59079 -83.06857 57407 ft 3467 kts 227°
2026-04-18 13:23 26.41285 -83.25056 57410 ft 3943 kts 200°
2026-04-18 13:24 26.22531 -83.41760 57407 ft 2899 kts 229°
2026-04-18 13:24 26.16685 -83.49106 57407 ft 3884 kts 217°
2026-04-18 13:25 25.98798 -83.67616 57404 ft 3764 kts 207°
2026-04-18 13:25 25.82329 -83.85743 57402 ft 2835 kts 250°
2026-04-18 13:25 25.67770 -84.05461 57399 ft 3325 kts 239°
2026-04-18 13:25 25.51681 -84.24809 57393 ft 3921 kts 208°
2026-04-18 13:26 25.34822 -84.42158 57393 ft 3226 kts 214°
2026-04-18 13:26 25.19602 -84.59097 57391 ft 2559 kts 249°
2026-04-18 13:26 25.05728 -84.76823 57388 ft 3294 kts 229°
2026-04-18 13:26 24.91312 -84.94683 57388 ft 3572 kts 212°
2026-04-18 13:27 24.77244 -85.11837 57388 ft 2479 kts 251°
2026-04-18 13:27 24.65275 -85.28953 57388 ft 2906 kts 243°
2026-04-18 13:27 24.51882 -85.46276 57385 ft 3497 kts 216°
2026-04-18 13:27 24.39051 -85.64005 57383 ft 3162 kts 217°
2026-04-18 13:28 24.31611 -85.76019 57383 ft 3596 kts 213°
2026-04-18 13:28 24.24591 -85.87110 57383 ft 3496 kts 231°
2026-04-18 13:28 24.16280 -85.97463 57377 ft 2583 kts 257°
2026-04-18 13:29 24.04868 -86.17861 57374 ft 3612 kts 238°
2026-04-18 13:29 23.93233 -86.39409 57317 ft 3611 kts 222°
2026-04-18 13:29 23.82706 -86.60682 57312 ft 2830 kts 254°
2026-04-18 13:29 23.73864 -86.81982 57312 ft 2847 kts 264°
2026-04-18 13:30 23.65241 -87.03913 57312 ft 3685 kts 235°
2026-04-18 13:30 23.56227 -87.25510 57306 ft 3237 kts 227°
2026-04-18 13:30 23.47378 -87.47146 57306 ft 2818 kts 266°
2026-04-18 13:30 23.40132 -87.69540 57304 ft 3213 kts 264°
2026-04-18 13:31 23.32914 -87.95079 57304 ft 4097 kts 240°
2026-04-18 13:31 23.24798 -88.21455 57301 ft 3639 kts 243°
2026-04-18 13:31 23.16436 -88.47827 57298 ft 3338 kts 267°
2026-04-18 13:31 23.08150 -88.76469 57295 ft 4312 kts 250°
2026-04-18 13:32 22.97902 -89.05954 57293 ft 4442 kts 234°
2026-04-18 13:32 22.88307 -89.34605 57287 ft 3743 kts 259°
2026-04-18 13:32 22.81193 -89.63052 57282 ft 3869 kts 270°
2026-04-18 13:32 22.75584 -89.92705 57279 ft 4569 kts 249°
2026-04-18 13:33 22.69094 -90.23321 57271 ft 4190 kts 241°
2026-04-18 13:33 22.62871 -90.52329 57265 ft 3444 kts 269°
2026-04-18 13:33 22.58286 -90.80830 57260 ft 3258 kts 280°
2026-04-18 13:33 22.55155 -91.07905 57254 ft 3517 kts 276°
2026-04-18 13:34 22.52631 -91.34057 57249 ft 3590 kts 273°
2026-04-18 13:34 22.49901 -91.59383 57243 ft 3330 kts 273°
2026-04-18 13:34 22.44718 -91.81666 57238 ft 1876 kts 241°
2026-04-18 13:34 22.39853 -91.95102 57235 ft 2711 kts 267°
2026-04-18 13:35 22.37927 -92.17835 57230 ft 3065 kts 262°
2026-04-18 13:35 22.35283 -92.39483 57224 ft 2434 kts 244°
2026-04-18 13:35 22.29384 -92.49505 57222 ft 1224 kts 159°
2026-04-18 13:35 22.18434 -92.43596 57227 ft 2453 kts 141°
2026-04-18 13:36 22.03947 -92.31110 57222 ft 2628 kts 159°
2026-04-18 13:36 21.89027 -92.25410 57227 ft 2138 kts 192°
2026-04-18 13:36 21.73736 -92.24540 57227 ft 2111 kts 162°
2026-04-18 13:36 21.62184 -92.22605 57227 ft 1110 kts 201°
2026-04-18 13:37 21.59208 -92.25316 57227 ft 882 kts 306°
2026-04-18 13:37 21.64235 -92.36167 57222 ft 2490 kts 292°
2026-04-18 13:37 21.72158 -92.58275 57219 ft 3713 kts 292°
2026-04-18 13:37 21.82080 -92.86297 57213 ft 4071 kts 290°
2026-04-18 13:38 21.91341 -93.14751 57202 ft 4113 kts 288°
2026-04-18 13:38 21.99494 -93.44966 57200 ft 4232 kts 287°
2026-04-18 13:38 22.15146 -93.98188 57194 ft 4034 kts 286°
2026-04-18 13:39 22.20910 -94.19158 57189 ft 3677 kts 284°
2026-04-18 13:39 22.26979 -94.43226 57189 ft 3133 kts 283°
2026-04-18 13:39 22.30699 -94.61960 57192 ft 1904 kts 276°
2026-04-18 13:39 22.34056 -94.81749 57189 ft 3556 kts 276°
2026-04-18 13:40 22.34738 -95.12573 57186 ft 4552 kts 261°
2026-04-18 13:40 22.25209 -95.46619 57183 ft 4873 kts 239°
2026-04-18 13:40 22.03572 -95.74574 57183 ft 4869 kts 215°
2026-04-18 13:40 21.73846 -95.92274 57181 ft 4917 kts 200°
2026-04-18 13:41 21.40790 -96.01234 57178 ft 4903 kts 186°
2026-04-18 13:41 21.06998 -96.02217 57178 ft 4766 kts 176°
2026-04-18 13:41 20.75758 -95.99616 57172 ft 4182 kts 179°